Voltar ao catálogo

STARLINK-11617

AtivoComunicaçõesVLEO
NORAD 63184·PAYLOAD·🇺🇸 United States

Lançado Mar 13, 2025 de Cape Canaveral Space Force Station

Loading…

Próximas Passagens (próximas 24 horas)

TLE

AtualizadoSource: CelesTrak SupGP

Época: Sep 14, 2026, 20:51 UTC

1 63184C 25048B   26257.86923611  .00014072  00000+0  10933-3 0  2578
2 63184  43.0007 259.8189 0001611 254.0375  32.1645 15.70823210    16

Acompanhe STARLINK-11617 em tempo real com AllMySat

Download on the App Store